Date,TemperatureHighF,TemperatureAvgF,TemperatureLowF,DewpointHighF,DewpointAvgF,DewpointLowF,HumidityHigh,HumidityAvg,HumidityLow,PressureMaxIn,PressureMinIn,WindSpeedMaxMPH,WindSpeedAvgMPH,GustSpeedMaxMPH,PrecipitationSumIn
2014-2-1,26.6,19.0,3.6,10.2,-12.9,-99.9,55,41,44,30.03,29.79,2,0,8,0.00
2014-2-2,13.5,7.0,2.8,-99.9,-99.9,-99.9,0,0,100,30.15,29.94,0,0,0,0.00
2014-2-3,25.3,13.1,-8.5,3.9,-52.4,-99.9,50,16,24,30.24,30.15,4,1,9,0.04
2014-2-4,33.6,21.5,6.4,9.9,-18.0,-99.9,54,31,31,30.30,30.21,3,1,9,0.04
2014-2-5,23.0,23.0,23.0,8.4,8.4,8.4,53,53,53,30.06,30.06,4,4,7,0.00
2014-2-6,22.3,13.5,-1.8,1.2,-49.0,-99.9,49,18,25,30.21,30.03,4,1,11,0.08
2014-2-7,20.5,11.9,-0.9,-9.8,-62.8,-99.9,29,11,23,30.06,29.97,5,3,13,0.08
2014-2-8,26.8,15.0,-2.6,0.3,-50.0,-99.9,50,16,24,30.12,30.03,3,1,8,0.00
2014-2-9,31.3,18.8,2.8,10.6,-29.8,-99.9,55,27,26,30.00,29.88,2,0,7,0.08
2014-2-10,23.4,12.5,0.7,-0.4,-60.7,-99.9,51,11,22,30.24,30.09,3,1,12,0.12
2014-2-11,18.7,8.2,-8.5,-10.8,-75.4,-99.9,27,7,25,30.39,30.30,3,1,9,0.00
2014-2-12,24.4,16.1,0.1,-2.2,-26.0,-99.9,46,25,25,30.27,30.00,4,1,11,0.00
2014-2-13,33.1,26.2,14.4,8.4,3.2,-3.1,45,37,28,29.91,29.50,1,0,7,0.00
2014-2-14,36.0,26.5,18.3,15.3,6.8,1.2,55,43,30,29.65,29.35,2,0,8,0.08
2014-2-15,28.8,15.6,0.7,-1.3,-42.0,-99.9,46,20,24,29.94,29.76,3,0,10,0.00
2014-2-16,24.8,15.1,0.3,9.5,-31.5,-99.9,54,29,33,30.24,29.88,4,2,12,0.00
2014-2-17,19.6,17.8,-11.4,3.9,-1.9,-99.9,50,43,34,30.27,29.62,3,1,11,0.00
2014-2-18,37.2,24.0,15.1,11.7,6.5,1.6,63,48,31,29.76,29.56,36,1,125,0.00
2014-2-19,49.8,35.5,19.8,23.9,9.7,-99.9,66,37,19,29.85,29.47,4,1,11,0.24
2014-2-20,39.6,32.9,25.7,26.1,18.6,8.1,77,56,46,29.91,29.32,3,0,10,0.12
2014-2-21,37.9,33.0,27.9,33.8,19.4,4.3,86,60,31,29.41,29.14,7,4,22,0.24
2014-2-22,37.9,29.0,20.8,17.2,-2.2,-99.9,50,27,20,29.74,29.50,6,4,19,0.00
2014-2-23,32.7,21.5,9.5,1.9,-20.8,-99.9,46,23,20,29.88,29.79,5,3,15,0.08
2014-2-24,27.1,15.3,3.7,-3.6,-51.5,-99.9,44,13,21,30.03,29.88,5,2,12,0.08
2014-2-25,30.6,16.0,-1.3,0.7,-47.9,-99.9,47,15,21,30.00,29.79,6,2,12,0.16
2014-2-26,21.2,9.2,-10.1,-11.7,-69.7,-99.9,27,8,22,29.91,29.44,5,3,13,0.08
2014-2-27,21.2,3.3,-8.9,-99.9,-99.9,-99.9,0,0,100,30.06,29.44,6,3,17,0.00
2014-2-28,21.7,11.0,-19.3,-11.0,-68.3,-99.9,27,9,22,30.24,29.97,5,3,10,0.00